Preview of NWS' New Version of Forecast
This preview is not operational and should not be used for support decisions.
Latest weather observations around

Chanute, Chanute Martin Johnson Airport (KCNU)

Using International System of Units (Switch to English Units)
Date/ Time (CST) Wind (kph) Vis. (km) Weather Sky Cond. Temp (°C) Rel. Humidity Wind Chill (°C) Heat Index (°C) Pressure Precip. (cm)
Air Dwpt 6 hour Altimeter (hPa) Sea level (hPa) 1 hr 3 hr 6 hr
Max Min
Feb 18 15:52 NE 13 16.09 Mostly Clear FEW110 1 -8     51% -3   1031.5 1032.7      
Feb 18 14:52 N 13 16.09 Cloudy OVC110 1 -8     53% -3   1031.5 1032.7      
Feb 18 13:52 NNE 11 16.09 Clear CLR 0 -8     56% -4   1031.8 1032.8      
Feb 18 12:52 N 21 16.09 Clear CLR -1 -8     58% -6   1031.5 1032.7      
Feb 18 11:52 NNW 17 16.09 Clear CLR -2 -8     61% -7   1032.2 1033.2      
Feb 18 10:52 NW 15 16.09 Mostly Clear FEW017 -3 -8     68% -8   1032.5 1033.7      
Feb 18 09:52 NNW 11 16.09 Clear CLR -5 -10     68% -10   1032.2 1033.3      
Feb 18 08:52 NNW 13 16.09 Clear CLR -6 -10     74% -11   1031.5 1032.7      
Feb 18 07:52 NNW 13 16.09 Clear CLR -8 -11     77% -13   1030.5 1031.7      
Feb 18 06:52 NNW 13 16.09 Clear CLR -8 -11     83% -14   1028.8 1029.9      
Feb 18 05:52 NNW 17 16.09 Clear CLR -8 -11     77% -14   1027.8 1028.9      
Feb 18 04:52 NW 17 16.09 Clear CLR -7 -10     80% -14   1027.4 1028.5      
Feb 18 03:52 NW 15 16.09 Clear CLR -7 -11     77% -13   1026.1 1027      
Feb 18 02:52 NNW 9 16.09 Clear   -7 -11     77% -12   1025.4 1026.3      
Feb 18 01:52 NNW 9 16.09 Clear CLR -7 -11     74% -11   1025.1 1026.1      
Feb 18 00:52 NW 11 16.09 Clear CLR -6 -10     74% -11   1024.7 1025.7      
Feb 17 23:52 NW 11 16.09 Clear CLR -6 -9     77% -11   1024.7 1025.6      
Feb 17 22:52 NW 9 16.09 Clear CLR -6 -10     71% -10   1024.1 1025      
Feb 17 21:52 NNW 13 16.09 Clear CLR -4 -9     68% -9   1023 1024.1      
Feb 17 20:52 NNW 15 16.09 Clear CLR -4 -9     68% -9   1021.7 1022.6      
Feb 17 19:52 NNW 15 16.09 Clear CLR -3 -8     68% -8   1020.7 1021.5      
Feb 17 18:52 NW 21 16.09 Mostly Clear FEW031 -2 -8     63% -8   1019.3 1020.1      
Feb 17 17:52 NW 24 16.09 Clear CLR -1 -8     56% -7   1017.6 1018.4      
Feb 17 16:52 NW 26 16.09 Clear CLR 1 -8     51% -5   1016.6 1017.3      
Feb 17 15:52 NW 33 16.09 Clear and Windy CLR 2 -8     49% -5   1015.9 1016.5      
Feb 17 14:52 NW 32 16.09 Clear and Windy CLR 2 -7     50% -4   1014.9 1015.7      
Feb 17 13:52 WNW 28 16.09 Mostly Clear FEW029 2 -6     54% -3   1014.9 1015.6      
Feb 17 12:52 NW 22 16.09 Mostly Clear FEW022 0 -7     61% -6   1014.9 1015.5      
Feb 17 12:50 NW 22 16.09 Mostly Clear FEW022 0 -6     64% -6   1014.9        
Feb 17 12:41 W 18 16.09 Mostly Cloudy BKN021 0 -6     66% -5   1014.9        
Feb 17 12:34 WNW 18 16.09 Partly Cloudy SCT021 -1 -6     66% -6   1014.9        
Feb 17 12:19 WNW 18 16.09 Mostly Cloudy BKN020 -1 -7     66% -6   1014.9        
Feb 17 12:05 WNW 24 16.09 Partly Cloudy SCT020 -1 -6     69% -7   1014.9        
Feb 17 11:52 WNW 28 16.09 Mostly Cloudy BKN020 -1 -6     69% -8   1014.9 1015.8      
Feb 17 10:52 WNW 24 16.09 Mostly Cloudy BKN020 -2 -7     69% -9   1014.6 1015.3      
Feb 17 09:52 WNW 21 16.09 Mostly Cloudy BKN019 -3 -7     74% -9   1014.2 1014.9      
Feb 17 08:52 WNW 28 16.09 Cloudy OVC017 -3 -8     71% -10   1013.2 1014.1      
Feb 17 07:52 WNW 22 16.09 Cloudy OVC016 -3 -7     77% -10   1011.5 1012.5      
Feb 17 06:52 WNW 22 16.09 Cloudy BKN018 OVC041 -3 -6     81% -9   1010.5 1011.5      
Feb 17 06:08   16.09 Cloudy FEW011 BKN018 OVC024 -2 -6     75%     1009.8        
Feb 17 05:52 NW 22 16.09 Cloudy BKN010 OVC018 -2 -4     85% -8   1009.8 1010.5      
Feb 17 05:21 WNW 21 16.09 Cloudy BKN009 OVC014 -2 -4     85% -7   1008.8        
Feb 17 04:52 W 13 14.48 Cloudy BKN010 OVC015 -2 -3     89% -6   1008.8 1009.4      
Feb 17 03:52 W 9 14.48 Cloudy OVC007 -2 -3     89% -5   1007.8 1008.3      
Feb 17 02:52 NW 9 11.27 Cloudy OVC005 -2 -3     89% -5   1007.5 1008.3      
Feb 17 02:38 NW 9 6.44 Fog/Mist OVC005 -2 -3     89% -5   1007.8        
Feb 17 01:52 WNW 15 6.44 Fog/Mist OVC004 -2 -3     89% -6   1007.8 1008.6      
Feb 17 01:27 NW 15 4.83 Fog/Mist BKN004 OVC013 -2 -3     92% -6   1007.5        
Feb 17 01:00 WNW 11 6.44 Fog/Mist FEW006 OVC014 -1 -3     88% -5   1007.5        
Feb 17 00:52 WNW 11 4.83 Fog/Mist BKN008 OVC014 -1 -3     88% -5   1007.8 1008.4      
Feb 17 00:17 NW 11 4.83 Clear   -1 -3     88% -5   1007.5        
Feb 16 23:52 NW 9 4.02 Clear   -1 -3     88% -4   1007.5 1008.1      
Feb 16 22:52 WNW 9 3.22 Fog/Mist OVC002 -1 -2     89% -4   1007.8 1008.4      
Feb 16 22:37 WNW 8 2.82 Fog/Mist OVC004 -1 -2     92% -4   1007.5        
Feb 16 22:15 WNW 8 4.02 Fog/Mist OVC004 -1 -2     92% -4   1007.5        
Feb 16 21:52 Calm 6.44 Fog/Mist OVC004 -1 -3     88%     1006.8 1007.8      
Feb 16 21:22 ESE 15 4.83 Fog/Mist OVC004 -1 -3     88% -6   1006.1        
Feb 16 21:02 ESE 13 6.44 Fog/Mist OVC005 -1 -3     88% -5   1006.1        
Feb 16 20:52 ESE 13 4.83 Fog/Mist OVC004 -1 -3     88% -5   1005.8 1006.7      
Feb 16 19:52 E 15 4.83 Fog/Mist OVC004 -2 -3     92% -6   1006.1 1007      
Feb 16 19:36 E 18 4.83 Fog/Mist OVC004 -2 -3     89% -7   1006.1        
Feb 16 18:52 E 15 4.83 Fog/Mist OVC006 -2 -4     85% -6   1006.1 1007      
Feb 16 17:52 E 17 6.44 Fog/Mist OVC007 -2 -4     85% -7   1006.4 1007.3      
Feb 16 16:52 E 17 16.09 Cloudy OVC009 -2 -5     81% -7   1007.5 1008.5      
Feb 16 15:52 E 15 16.09 Cloudy OVC012 -2 -6     78% -7   1007.8 1008.9      
Feb 16 14:52 E 15 16.09 Cloudy OVC013 -2 -6     75% -6   1009.2 1010.2      
Feb 16 13:52 ESE 21 16.09 Cloudy OVC013 -2 -6     75% -8   1009.8 1011      
Feb 16 12:52 ENE 13 16.09 Cloudy OVC014 -3 -6     78% -7   1011.9 1012.8      
Feb 16 12:24 ESE 18 16.09 Cloudy OVC014 -3 -7     75% -8   1012.5        
Feb 16 11:52 ESE 13 16.09 Mostly Cloudy BKN015 -3 -7     77% -8   1013.2 1014.4      
Feb 16 10:52 E 18 16.09 Clear CLR -4 -8     74% -10   1013.6 1014.7      
Feb 16 10:30 ENE 18 16.09 Mostly Clear FEW024 -5 -8     78% -11   1013.6        
Feb 16 09:52 E 13 16.09 Cloudy OVC022 -6 -9     75% -11   1015.2 1016.4      
Feb 16 08:52 ENE 13 16.09 Cloudy OVC024 -7 -10     77% -12   1016.9 1018.2      
Feb 16 07:52 NE 9 16.09 Cloudy OVC027 -7 -11     74% -12   1016.9 1018.2      
Feb 16 06:52 NE 15 16.09 Cloudy OVC026 -8 -11     77% -14   1016.9 1018.3      
Feb 16 05:52 NNE 13 16.09 Cloudy OVC024 -8 -11     77% -13   1017.6 1019      
Feb 16 04:52 NE 11 16.09 Cloudy OVC025 -8 -11     77% -13   1018 1019.2      
Feb 16 04:02 NE 8 16.09 Mostly Cloudy BKN029 -8 -11     77% -12   1018        
Feb 16 03:52 NE 13 16.09 Partly Cloudy FEW013 SCT031 -8 -12     74% -13   1018 1019.2      
Feb 16 02:52 NNE 17 16.09 Mostly Cloudy FEW012 BKN039 -8 -11     77% -14   1017.3 1018.5      
Feb 16 01:52 NE 18 16.09 Cloudy SCT011 OVC040 -7 -10     80% -14   1018.3 1019.6      
Feb 16 01:50 NE 18 16.09 Cloudy SCT011 OVC040 -7 -10     79% -14   1018.3        
Feb 16 01:14 NNE 17 16.09 Cloudy BKN011 OVC042 -7 -10     80% -14   1019        
Feb 16 00:52 NNE 15 16.09 Cloudy FEW011 OVC042 -7 -10     80% -13   1019 1020.2      
Feb 15 23:52 NNE 15 16.09 Cloudy SCT027 OVC032 -7 -10     80% -13   1019 1020.2     0
Feb 15 23:42 NE 15 16.09 Cloudy OVC030 -7 -10     80% -13   1018.6        
Feb 15 23:11 NE 13 16.09 Cloudy BKN026 OVC031 -7 -9     84% -13   1018.6        
Feb 15 23:04 NE 17 16.09 Cloudy SCT025 BKN031 OVC039 -7 -9     84% -14   1019        
Feb 15 22:52 NE 15 16.09 Cloudy SCT010 BKN026 OVC031 -7 -10     80% -13   1019 1020.1      
Feb 15 21:52 NNE 18 16.09 Cloudy OVC010 -8 -10     84% -15   1019.3 1020.6      
Feb 15 21:39 NNE 21 16.09 Cloudy OVC010 -7 -10     80% -14   1019.3        
Feb 15 21:14 N 18 14.48 Cloudy OVC009 -7 -9     84% -14   1019.3        
Feb 15 20:52 NNE 21 16.09 Cloudy OVC010 -7 -9     84% -14   1019 1020.3   0  
Feb 15 19:52 NNE 21 16.09 Cloudy BKN011 OVC030 -7 -10     80% -14   1018.6 1019.9      
Feb 15 19:14 NNE 28 16.09 Cloudy BKN010 OVC036 -7 -10     80% -16   1018        
Feb 15 18:52 N 21 12.87 Cloudy OVC009 -7 -9     84% -14   1017.6 1018.8 0    
Feb 15 18:43 N 26 9.66 Fog/Mist OVC008 -7 -9     84% -15   1017.6   0    
Feb 15 17:52 NNE 22 6.44 Light Freezing Rain and Fog/Mist BKN008 BKN013 OVC022 -7 -8     88% -14   1016.6 1017.6 0   0
Feb 15 17:46 N 18 6.44 Light Freezing Rain and Fog/Mist SCT008 BKN012 OVC021 -7 -9     86% -14   1016.6   0    
Feb 15 16:52 NNE 22 6.44 Fog/Mist OVC012 -7 -9     84% -14   1015.9 1017.1 0    
Notice The following observation data may not be complete
May 15 02:24   16.09 Light Rain OVC110          %         0    
May 15 02:09   12.87 Thunderstorms and Rain SCT090 OVC110 18 18     100%     1015.6   0    
May 14 20:13 E 17 16.09 Thunderstorms SCT017 20 19     93%     1010.8   0    
May 14 19:52   1.21 Thunderstorms and Heavy Rain and Fog/Mist OVC021 20 19     93%     1010.5 1009.6 2    
May 13 14:52 S 30 16.09 Clear CLR 31 22     59%   34 1013.9 1012.6      
May 13 11:52 S 28 16.09 Clear CLR 29 21     63%   31 1015.2 1014.1      
May 11 10:52   16.09 Clear CLR 26 18     62%   26 1009.2 1008.1      
Jun 12 00:52 S 18 16.09 Clear CLR 24 18     71%   24 1012.5 1011.3      
Jun 11 15:52   16.09 Clear CLR 32 20     50%   34 1010.5 1009.2      
Jun 11 13:52   16.09 Clear CLR 32 21     52%   34 1011.5 1010      
Jun 11 11:52   16.09 Clear CLR 30 19     53%   32 1011.5 1010.2      
Jun 10 06:52 SSE 13 16.09 Mostly Clear FEW035 19 16     84%     1010.8 1009.9      
Jun 10 02:52 S 15 16.09 Clear CLR 19 14     73%     1010.2 1008.9      
Jun 08 16:52 SSE 13 16.09 Clear CLR 28 11     35%   27 1014.6 1013.6      
Jun 07 23:52 Calm 16.09 Clear CLR 14 11     78%     1017.6 1017